Location: Unspecified
(0.0000°N, 0.0000°E)
Time: 12:51:15
(UTC+00:00)

Vanguard 2 Rocket - Pass Details

Date: 19 December 2018
Orbit: 556 x 3325 km, 32.9° (Epoch: 25 March)

Event Time Altitude Azimuth Distance (km) Brightness Sun altitude
Rises 20:56:18 0° 224° (SW) 7,314 12.3 -40.2°
Reaches altitude 10° 21:02:58 10° 212° (SSW) 6,238 11.7 -41.7°
Maximum altitude 21:17:48 26° 163° (SSE) 4,382 10.3 -44.8°
Enters shadow 21:23:20 22° 135° (SE) 4,274 10.1 -45.9°
Drops below altitude 10° 21:28:55 10° 111° (ESE) 4,689 - -47.1°
Sets 21:32:54 0° 99° (E) 5,279 - -47.9°
